Regional Weather Roundup
Issued by NWS

Home | Current Version | Previous Version | Graphics & Text | Print | Product List | Glossary On
Versions: 1 2 3 4 5 6 7 8 9 10 11 12 13 14 15 16 17 18 19 20 21 22 23 24 25 26 27 28 29 30 31 32 33 34 35 36 37 38 39 40 41 42 43 44 45 46 47 48 49 50
000
ASUS43 KIND 210309
RWRIN

WEATHER ROUNDUP FOR INDIANA
NATIONAL WEATHER SERVICE INDIANAPOLIS IN
1100 PM EDT SUN AUG 20 2017

NOTE: "FAIR" INDICATES FEW OR NO CLOUDS BELOW 12,000 FEET WITH NO
SIGNIFICANT WEATHER AND/OR OBSTRUCTIONS TO VISIBILITY.

* - STATION DOES NOT REPORT WEATHER SUCH AS PRECIPITATION OR FOG.

+ - STATION NOT QUALITY CONTROLLED BY THE NATIONAL WEATHER SERVICE.
    USE DATA WITH CAUTION...ESPECIALLY DEWPOINT AND RELATIVE
    HUMIDITY OBSERVATIONS.

INZ001>003-010>013-019-020-210400-
NORTHWEST INDIANA

CITY           SKY/WX    TMP DP  RH WIND       PRES   REMARKS
GARY /AIRPORT/ MOCLDY    75  70  83 SE5       30.04F
KNOX *+        CLOUDY    73  68  83 S7        30.06R
LA PORTE +     CLOUDY    74  69  85 CALM      30.07S
MICHIGAN CITY+ CLOUDY    77  66  69 S3        30.06S
MONTICELLO +   CLOUDY    75  70  83 CALM      30.05S
RENSSELAER +   CLOUDY    75  64  69 E5        30.05S
VALPARAISO     CLOUDY    78  69  73 SE6       30.06R

$$

LMZ046-743>745-210400-
SOUTHERN LAKE MICHIGAN

STATION/POSITION TIME  TEMP    WIND        PRES    WAVE
                       AIR SEA DIR/SP/G            HT
                 (UTC) (F)     (DEG/KT/KT) (MB)    (FT)
BURNS HARBOR     0240   82     170/  9/ 14 1017.6R
MICHIGAN CITY    0240   80     150/  8/ 10   N/A
5NW MICH CITY    0300   78 76  160/  6/  6   N/A     1

$$

INZ004-005-014>016-021>024-210400-
NORTH CENTRAL INDIANA

CITY           SKY/WX    TMP DP  RH WIND       PRES   REMARKS
GOSHEN         PTCLDY    71  66  84 CALM      30.08R
LOGANSPORT +   CLOUDY    70  66  88 E6        30.08S
PERU/GRISSOM   PTCLDY    73  67  80 CALM      30.07S
ROCHESTER +    CLOUDY    73  70  88 CALM      30.08S
SOUTH BEND     LGT RAIN  77  68  73 SE6       30.07S
WARSAW +       MOCLDY    70  70 100 CALM      30.08S

$$

INZ006>009-017-018-025>027-210400-
NORTHEAST INDIANA

CITY           SKY/WX    TMP DP  RH WIND       PRES   REMARKS
AUBURN +       CLOUDY    70  66  88 CALM      30.10R
FORT WAYNE     MOCLDY    70  65  84 S3        30.09R
HUNTINGTON +   MOCLDY    70  69  96 CALM      30.09R

$$

INZ028-029-035-036-043>045-051>053-210400-
WEST CENTRAL INDIANA

CITY           SKY/WX    TMP DP  RH WIND       PRES   REMARKS
GREENCASTLE +  CLEAR     72  68  88 CALM      30.08S
LAFAYETTE      CLEAR     74  69  85 NE3       30.05R
TERRE HAUTE    CLEAR     75  70  84 S6        30.05R

$$

INZ030>032-037>040-046>048-054>057-064-065-210400-
CENTRAL INDIANA

CITY           SKY/WX    TMP DP  RH WIND       PRES   REMARKS
CP ATTERBURY + CLEAR     70  68  94 CALM      30.09R
FRANKFORT +    CLOUDY    74  69  85 SE6       30.09S
GREENWOOD *+   CLEAR     77  68  73 SE3       30.09R
INDIANAPOLIS   PTCLDY    79  69  71 S7        30.07R
-EAGLE CREEK   CLEAR     79  67  66 MISG      30.08R
KOKOMO +       MOCLDY    72  67  84 E6        30.09S
MARION +       CLEAR     70  64  83 CALM      30.10S
MT COMFORT *+  CLEAR     73  68  83 SE6       30.09R
SHELBYVILLE    CLEAR     74  67  78 S7        30.08R
ZIONSVILLE +   CLEAR     70  66  86 CALM      30.10R

$$

INZ033-034-041-042-049-050-058-059-210400-
EAST CENTRAL INDIANA

CITY           SKY/WX    TMP DP  RH WIND       PRES   REMARKS
MUNCIE         CLEAR     71  67  87 CALM      30.10R
RICHMOND +     CLEAR     66  64  94 SE6       30.13R

$$

INZ060-061-067>069-081>083-085>088-210400-
SOUTHWEST INDIANA

CITY           SKY/WX    TMP DP  RH WIND       PRES   REMARKS
EVANSVILLE     CLEAR     78  70  76 CALM      30.09R
HUNTINGBURG +  CLEAR     77  71  82 S5        30.09R
WASHINGTON +   CLEAR     73  70  92 MISG      30.07R

$$

INZ062-063-066-070>080-084-089>092-210400-
SOUTH CENTRAL AND SOUTHEAST INDIANA

CITY           SKY/WX    TMP DP  RH WIND       PRES   REMARKS
BEDFORD +      CLOUDY    70  68  94 CALM      30.08R
BLOOMINGTON    PTCLDY    73  67  81 CALM      30.09R
MADISON *+     CLEAR     73  70  88 CALM      30.12R
NORTH VERNON + MOCLDY    73  70  88 CALM      30.10R
SEYMOUR +      CLEAR     73  73 100 CALM      30.08R

$$




USA.gov is the U.S. government's official web portal to all federal, state and local government web resources and services.